Погода в Семее

Казахстан     50°24′59″N   80°15′22″E
темп.,
°C
ветер,
м/с
пор.,
м/с
влажн.,
%
обл.,
%
осадки,
мм/ч
давл.,
гПа
погр.,
м
4 июля, пн
пн400:00+18в33405 0.0 100536
03:00+17вюв334322 0.0 100435
06:00+18вюв464780 0.0 1003122
09:00+26ююв452896 0.0 1003778
12:00+30ююв44187 0.0 10012265
15:00+32юв541621 0.0 9992892
18:00+31вюв7718100 0.0 9982390
21:00+26вюв71325100 0.0 997437
5 июля, вт
вт500:00+24вюв8143099 0.0 996357
03:00+24юв61228100 0.0 994379
06:00+20юз5125559 0.5 995632
09:00+25юз584531 0.3 9961200
12:00+28юз10142792 0.3 9942889
15:00+26зюз9152665 0.0 9962850
18:00+25зюз1112276 0.0 9983045
21:00+20зсз511505 0.1 1000554
6 июля, ср
ср600:00+20зюз9144944 0.1 1001687
03:00+17зюз6106926 0.1 1004771
06:00+17зюз7106393 0.2 10051085
09:00+18зюз81058100 0.0 10071326
12:00+19зсз8115594 0.0 10081295
15:00+23зсз8104491 0.0 10072011
18:00+23зсз79450 0.0 10081474
21:00+18зсз59643 0.0 1009253
7 июля, чт
чт700:00+15сз228344 0.0 101024
03:00+14юз228683 0.0 101020
06:00+16зсз24814 0.0 1011136
09:00+21зсз23570 0.0 1011842
12:00+26з23369 0.0 10101680
15:00+29зсз56276 0.0 10082460
18:00+29сз4525100 0.0 10072376
21:00+22всв474941 0.0 1007142
8 июля, пт
пт800:00+19всв4662100 0.3 1008108
03:00+17всв1171100 0.0 100628
06:00+18всв467373 0.9 1005188
09:00+23юв444743 0.0 10051285
12:00+28юв353281 0.0 10032111
15:00+30юз752567 0.0 10023372
18:00+21в81157100 1.0 1003541
21:00+18в577499 1.3 1005206